SCP
0 0 0 -0 -0 -0 0 0 -0 -0 0 -0 0 0 0 0 0 -0 0 0 0 0 0 0 0 0 0 0 0 0 0 0 0 0 0 0 0 0 0 0 0 0 -0 -0
0 0 -0 -0 -0 -0 0 0 -0 -0 0 0 0 0 0 0 0 0 0 0 0 0 0 0 0 0 0 0 0 0 0 0 0 0 0 0 0 0 0 0 0 0 -0 -0
0 -0 -0 -0 0 -0 0 -0 -0 -0 0 -0 0 0 0 0 0 0 0 0 0 0 0 0 0 0 0 0 0 0 0 0 0 0 0 0 0 0 0 0 0 0 0 0
0 0 0 0 -0 0 0 -0 -0 -0 -0 -0 0 -0 0 0 -0 0 0 0 0 0 0 0 0 0 0 0 0 0 0 0 0 0 0 0 0 0 0 0 0 0 -0 -0
-0 0 -0 -0 0 0 0 -0 -0 0 0 -0 -0 -0 0 -0 -0 0 0 0 0 0 0 0 0 0 0 0 0 0 0 0 0 0 0 0 0 0 0 0 0 0 -0 -0
-0 0 -0 0 0 -0 0 0 -0 0 -0 -0 0 0 0 -0 0 0 0 0 0 0 0 0 0 0 0 0 0 0 0 0 0 0 0 0 0 0 0 0 0 0 -0 -0
0 -0 -0 0 -0 0 -0 -0 0 0 -0 -0 -0 0 -0 0 0 0 0 0 0 0 0 0 0 0 0 0 0 0 0 0 0 0 0 0 0 0 0 0 0 0 0 -0
0 0 -0 -0 -0 -0 0 0 0 -0 -0 -0 0 -0 -0 0 0 0 0 0 0 0 -0 0 0 0 0 0 0 0 0 0 0 0 0 0 0 0 0 0 0 0 0 -0
0 -0 0 0 -0 -0 0 0 -0 -0 0 0 0 0 -0 0 0 0 0 0 0 0 -0 0 0 0 0 0 0 0 0 0 0 0 0 0 0 0 0 0 0 0 0 -0
0 0 0 -0 -0 0 0 0 0 0 -0 0 0 -0 0 0 0 0 0 0 0 -0 -0 0 0 0 -0 0 0 0 0 0 0 0 0 0 0 0 0 0 0 0 -0 -0
0 0 0 0 0 0 0 0 0 0 0 0 -0 0 0 0 0 0 0 0 -0 -0 -0 -0 -0 -0 -0 -0 0 0 0 0 0 0 0 0 0 0 0 0 0 0 -0 0
-0 0 0 0 0 0 0 0 0 0 0 -0 -0 0 0 0 0 0 0 0 -0 -0 -0 -0 -0 -0 -0 -0 0 0 0 0 0 0 -0 0 0 0 0 0 0 0 -0 -0
0 0 0 0 0 0 0 0 0 0 0 0 -0 -0 0 0 0 0 0 0 -0 -0 -0 -0 -0 -0 -0 -0 0 0 0 0 0 0 0 0 0 0 0 0 0 0 0 0
0 0 0 0 0 0 0 0 0 0 0 0 -0 -0 0 0 0 0 0 0 -0 -0 -0 -0 -0 -0 -0 -0 -0 0 0 0 0 0 0 0 0 0 0 0 0 0 0 0
0 0 0 0 0 0 0 0 0 0 -0 0 0 -0 0 0 0 0 0 0 -0 -0 -0 -0 -0 -0 -0 -0 -0 -0 -0 0 0 0 0 0 0 0 0 0 0 0 0 0
1 0 0 0 0 0 0 0 0 0 0 0 0 -0 0 0 0 0 0 0 -0 -0 -0 -0 -0 -0 -0 -0 -0 -0 -0 -0 -0 0 -0 -0 0 0 0 0 -0 0 0 0
0 0 0 0 0 0 0 0 0 0 0 0 0 0 0 0 0 0 0 0 -0 -0 -0 -0 -0 -0 -0 -0 -0 -0 -0 -0 -0 -0 -0 -0 0 0 0 0 0 0 0 0
0 1 0 0 0 0 0 0 0 0 0 0 0 0 0 0 0 0 -0 0 0 -0 -0 -0 -0 -0 -0 -0 -0 -0 -0 -0 -0 -0 -0 -0 -0 0 0 0 0 0 0 0
0 1 1 0 0 0 0 0 0 0 0 0 0 0 0 0 0 0 0 0 0 -0 -0 -0 -0 -0 -0 -0 -0 -0 -0 -0 -0 -0 -0 -0 -0 0 0 0 0 0 0 0
0 1 0 0 0 0 0 0 0 0 0 0 0 0 0 0 0 0 0 0 0 0 0 -0 -0 -0 -0 -0 -0 -0 -0 -0 -0 -0 -0 -0 -0 0 0 0 0 0 0 0
0 1 0 1 1 0 0 0 0 0 0 0 0 0 0 0 0 0 0 0 0 0 0 -0 -0 -0 -0 -0 -0 -0 -0 -0 -0 -0 -0 -0 -0 -0 0 0 0 0 0 0
0 0 1 1 0 0 0 0 0 1 1 1 0 0 0 0 0 0 0 0 0 0 0 0 -0 -0 0 -0 -0 -0 -0 -0 -0 -0 -0 -0 -0 -0 -0 -0 -0 -0 0 0
0 0 1 0 1 1 0 0 1 1 0 0 0 0 0 0 0 0 0 0 0 0 0 0 -0 -0 -0 -0 0 -0 0 -0 -0 0 -0 -0 -0 -0 -0 -0 -0 -0 -0 -0
0 0 0 0 0 0 0 0 0 0 0 0 0 0 0 0 0 0 0 0 0 0 0 0 0 -0 -0 -0 0 0 0 -0 -0 0 0 -0 -0 -0 -0 -0 -0 -0 -0 0
0 0 0 0 0 0 0 0 0 0 0 0 0 0 0 0 0 0 0 0 0 0 0 0 0 0 -0 0 0 0 0 0 0 0 0 0 0 -0 -0 -0 0 -0 -0 -0
0 0 0 0 0 0 0 0 0 0 0 0 0 0 0 0 0 0 0 0 0 0 0 0 0 0 0 0 0 0 0 0 0 0 0 0 0 0 0 0 0 0 0 0
Wind_Speed_500mb
52 36 45 53 53 52 49 49 43 39 40 25 18 44 34 27 40 46 37 35 34 30 35 41 37 32 26 18 14 12 12 16 17 26 18 12 20 20 22 17 23 20 19 12
41 48 50 52 50 54 55 50 45 41 29 22 25 27 24 31 42 48 36 30 29 29 37 38 39 35 29 19 14 13 8 13 11 16 19 14 13 20 21 24 17 14 17 13
57 53 54 56 52 55 52 49 40 41 31 32 17 28 35 36 42 32 23 22 9 37 42 45 42 37 30 24 18 10 10 3 10 17 18 21 13 14 16 17 20 9 11 7
61 53 56 57 57 50 48 50 46 39 31 24 27 26 27 30 34 15 17 34 38 43 42 50 45 41 33 24 18 14 10 2 6 14 17 23 16 15 8 19 21 8 11 13
62 60 59 59 57 57 48 50 45 35 29 30 31 24 27 30 32 18 10 5 31 41 44 49 45 39 32 25 20 15 10 3 4 16 18 24 17 20 3 10 18 16 9 4
58 64 56 65 51 52 51 46 41 27 26 27 33 28 28 29 6 14 4 13 34 37 39 43 39 37 32 26 20 16 11 6 1 6 17 20 25 20 6 14 19 19 14 10
52 62 60 57 61 48 50 38 23 23 25 24 33 31 31 27 12 4 10 7 24 32 40 43 42 38 33 26 22 17 13 6 2 4 11 19 22 15 18 23 21 18 18 14
46 45 66 55 60 51 51 35 25 31 24 32 21 30 14 5 14 12 4 13 16 26 39 42 42 39 33 28 24 18 14 9 4 4 7 16 22 22 23 20 21 23 20 22
45 58 45 64 55 51 45 33 41 36 32 26 9 27 20 24 18 15 18 16 25 29 42 44 42 38 32 29 25 20 15 11 6 0 5 10 16 20 23 29 26 21 23 21
48 34 56 62 51 56 46 39 35 23 35 33 28 29 12 25 18 21 21 22 28 39 42 43 42 37 31 30 27 22 18 13 9 5 4 7 10 13 17 19 26 25 27 30
49 36 39 47 59 45 37 40 39 27 31 25 23 22 11 29 20 18 23 35 37 48 43 43 41 36 33 30 28 26 19 14 12 9 8 11 5 12 14 15 26 25 23 26
65 21 33 53 52 52 47 47 36 21 35 24 24 13 18 14 16 15 34 41 42 45 43 41 40 38 36 32 32 27 22 17 15 12 11 14 8 9 13 22 24 33 31 25
50 40 27 39 42 52 49 43 41 31 17 30 24 22 24 22 16 22 16 47 49 45 43 41 42 40 38 35 35 28 25 21 19 17 14 16 12 11 14 17 22 24 27 38
45 39 47 31 37 42 50 50 46 40 25 28 31 26 28 28 22 19 22 43 50 46 46 43 42 42 41 38 37 32 27 25 22 22 17 18 18 12 24 16 23 23 22 37
44 54 45 51 47 53 55 55 51 48 42 37 35 35 22 28 21 24 33 33 41 48 50 46 45 44 44 43 39 35 29 30 26 26 24 21 24 19 21 18 20 20 20 24
41 45 49 49 57 53 52 57 53 53 50 44 42 36 28 22 43 37 28 40 37 44 50 51 48 44 46 48 43 40 34 35 30 29 26 24 26 24 25 24 22 22 25 22
29 35 41 47 46 51 49 54 51 43 42 45 41 33 25 17 17 17 34 40 38 40 43 58 56 50 49 51 46 46 40 38 34 32 30 28 30 29 29 28 27 27 23 24
31 36 34 37 40 54 33 38 44 41 41 39 36 33 34 28 25 34 36 33 42 38 43 57 58 54 53 51 50 46 43 42 37 35 33 31 32 33 30 30 31 33 32 25
31 30 22 32 38 29 47 49 44 35 44 40 38 34 29 41 43 34 43 37 37 42 44 53 61 60 57 55 53 51 48 46 41 39 38 34 35 37 36 35 35 34 37 33
35 25 24 27 39 49 34 43 43 31 33 32 35 30 26 37 22 18 39 35 34 47 44 53 59 63 61 59 59 56 53 51 48 43 40 36 35 40 41 41 40 34 34 32
27 26 32 25 25 31 44 46 46 38 17 26 40 40 37 25 23 37 29 44 35 51 46 51 64 73 71 66 63 62 57 55 50 44 41 39 37 41 41 43 41 40 37 30
25 21 25 29 21 26 30 43 46 17 24 20 51 47 44 38 30 33 21 41 44 45 45 44 61 72 73 72 70 67 62 55 49 46 44 43 43 39 42 47 44 40 40 34
17 22 19 24 24 16 25 29 31 30 22 32 40 49 46 45 45 41 32 25 33 44 42 45 56 66 71 74 74 72 66 58 52 48 48 50 48 42 44 50 50 45 45 37
15 31 17 22 20 24 35 47 35 45 30 18 28 36 41 45 46 48 44 37 34 31 38 45 51 62 71 75 72 71 64 61 55 53 52 54 53 45 47 42 51 50 49 47
9 27 16 28 26 22 19 12 16 18 27 30 16 24 25 30 37 45 42 40 37 37 42 44 51 61 66 72 70 69 67 64 61 60 56 58 58 50 51 44 45 50 47 53
20 2 5 15 34 31 30 15 23 48 45 32 23 11 12 33 31 36 32 40 37 40 51 51 47 54 59 62 67 70 71 67 67 65 64 63 59 55 55 52 45 39 43 38
Wind_Direction_500mb
227 221 224 224 222 235 243 249 241 244 229 272 223 237 249 288 287 288 276 264 221 214 189 192 198 200 210 214 241 255 269 295 337 331 329 359 320 354 343 325 313 278 241 226
219 224 228 234 230 231 242 249 262 272 280 260 247 259 288 282 268 267 274 279 227 177 165 186 191 195 207 221 229 237 268 289 330 349 2 356 345 343 2 13 2 24 201 188
216 220 221 233 224 229 232 241 250 261 276 270 259 263 254 272 258 231 242 250 222 170 177 180 184 193 202 209 223 209 241 303 339 346 354 343 343 328 356 9 28 90 131 170
225 225 227 224 232 220 233 233 241 259 266 266 290 294 295 299 280 239 267 225 199 166 175 180 182 191 196 206 206 205 223 189 334 342 350 351 355 343 352 11 17 50 147 177
225 221 225 226 220 226 229 235 231 234 250 258 265 269 279 279 281 216 213 250 146 155 175 176 180 187 191 197 194 193 218 209 355 344 356 357 9 354 273 349 29 74 73 137
229 224 224 231 222 221 229 235 243 242 255 248 244 253 268 269 339 108 134 130 150 157 168 170 178 180 185 190 191 196 207 217 200 340 349 352 345 358 123 53 61 65 63 97
223 229 228 231 226 214 224 226 221 227 237 253 255 251 254 260 299 111 58 9 136 154 159 165 172 176 181 184 189 195 207 212 133 13 360 354 5 43 96 73 56 56 63 100
219 221 220 215 229 217 207 209 231 222 225 245 317 242 266 254 143 119 154 77 121 152 158 168 174 177 178 183 189 189 197 214 155 53 26 7 48 85 81 55 53 66 59 101
206 229 209 225 212 223 202 206 221 248 255 262 221 237 264 157 160 196 162 135 143 159 160 170 175 177 180 183 189 189 199 200 181 95 59 45 61 80 72 78 65 70 82 100
233 220 229 203 215 217 221 202 209 220 239 259 276 259 255 149 190 168 136 142 151 155 164 172 174 177 180 184 187 187 194 196 188 166 97 75 17 52 65 58 72 76 93 101
226 244 213 213 208 199 199 226 201 219 227 230 248 269 190 150 192 134 150 142 161 160 172 173 175 177 182 182 185 187 190 188 188 176 168 114 75 73 60 70 91 76 98 106
212 225 242 215 200 203 201 214 205 208 220 239 252 246 98 107 140 147 127 148 170 170 175 175 176 177 183 183 186 187 191 190 191 181 165 142 135 96 86 92 99 86 89 102
198 227 237 239 208 192 207 211 220 207 217 220 241 242 160 169 174 174 185 154 165 174 177 176 176 179 186 184 185 186 189 191 187 180 178 156 150 135 113 116 100 96 89 94
187 218 221 228 207 178 190 214 214 213 211 224 230 244 157 159 176 173 196 148 160 176 179 180 180 183 188 187 188 187 188 188 187 181 184 171 159 162 123 100 108 107 103 96
189 208 223 230 233 194 194 204 215 216 218 217 224 244 237 174 177 199 194 164 165 172 182 184 187 186 188 188 190 190 188 187 188 183 186 182 167 155 133 117 115 114 108 103
191 207 214 224 229 244 200 199 209 225 216 215 233 236 225 235 189 185 198 179 179 177 188 187 190 190 190 189 191 191 189 188 187 185 191 186 172 162 159 148 142 130 125 119
224 206 201 224 218 234 217 200 200 218 227 210 218 224 239 224 184 211 188 187 179 180 189 186 191 193 192 191 192 191 189 190 186 187 191 185 179 176 171 161 152 148 144 133
273 210 199 209 224 224 230 202 204 213 227 226 228 217 215 233 231 194 221 195 174 181 183 188 191 192 191 191 192 190 189 191 188 187 189 188 183 183 176 169 166 165 160 157
256 225 195 205 221 227 216 229 204 199 211 215 220 225 218 224 224 230 225 203 194 178 184 192 192 189 186 190 192 191 190 190 191 190 190 189 187 189 182 178 185 182 168 167
241 237 188 207 213 219 218 212 226 228 221 204 205 211 207 229 222 231 211 204 210 176 184 184 188 185 189 190 193 191 192 192 194 194 192 193 192 193 191 186 192 187 174 171
218 193 191 221 199 219 216 230 199 213 227 195 206 199 201 214 225 229 231 191 193 178 183 182 183 185 192 191 192 192 194 196 196 195 194 194 195 199 198 194 204 192 178 178
201 202 195 208 218 223 219 210 218 174 208 242 200 192 200 216 224 233 231 176 196 182 176 184 179 184 192 193 193 195 198 198 196 196 195 194 196 196 198 198 204 201 183 192
296 202 211 204 214 262 270 324 156 137 179 216 200 189 198 209 215 221 218 190 182 185 178 189 178 182 188 194 199 197 199 197 197 197 197 195 201 196 201 204 205 205 194 192
279 278 337 302 211 218 244 276 179 180 187 163 166 188 196 203 205 213 210 196 184 188 191 184 177 180 187 197 200 202 196 197 198 199 198 195 203 199 207 214 210 205 202 188
289 342 326 313 281 235 209 296 186 203 181 168 160 193 188 200 196 196 205 190 183 200 184 186 187 185 190 194 197 197 195 198 200 200 199 195 205 207 205 217 208 203 212 200
257 235 266 256 12 341 282 219 304 202 209 143 164 200 243 191 203 193 194 176 186 193 183 185 191 191 189 195 197 199 196 198 199 201 198 195 194 207 203 214 205 213 208 216
Wind_Speed_850mb
52 36 45 53 53 52 49 49 43 39 40 25 18 44 34 27 40 46 37 35 34 30 35 41 37 32 26 18 14 12 12 16 17 26 18 12 20 20 22 17 23 20 19 12
41 48 50 52 50 54 55 50 45 41 29 22 25 27 24 31 42 48 36 30 29 29 37 38 39 35 29 19 14 13 8 13 11 16 19 14 13 20 21 24 17 14 17 13
57 53 54 56 52 55 52 49 40 41 31 32 17 28 35 36 42 32 23 22 9 37 42 45 42 37 30 24 18 10 10 3 10 17 18 21 13 14 16 17 20 9 11 7
61 53 56 57 57 50 48 50 46 39 31 24 27 26 27 30 34 15 17 34 38 43 42 50 45 41 33 24 18 14 10 2 6 14 17 23 16 15 8 19 21 8 11 13
62 60 59 59 57 57 48 50 45 35 29 30 31 24 27 30 32 18 10 5 31 41 44 49 45 39 32 25 20 15 10 3 4 16 18 24 17 20 3 10 18 16 9 4
58 64 56 65 51 52 51 46 41 27 26 27 33 28 28 29 6 14 4 13 34 37 39 43 39 37 32 26 20 16 11 6 1 6 17 20 25 20 6 14 19 19 14 10
52 62 60 57 61 48 50 38 23 23 25 24 33 31 31 27 12 4 10 7 24 32 40 43 42 38 33 26 22 17 13 6 2 4 11 19 22 15 18 23 21 18 18 14
46 45 66 55 60 51 51 35 25 31 24 32 21 30 14 5 14 12 4 13 16 26 39 42 42 39 33 28 24 18 14 9 4 4 7 16 22 22 23 20 21 23 20 22
45 58 45 64 55 51 45 33 41 36 32 26 9 27 20 24 18 15 18 16 25 29 42 44 42 38 32 29 25 20 15 11 6 0 5 10 16 20 23 29 26 21 23 21
48 34 56 62 51 56 46 39 35 23 35 33 28 29 12 25 18 21 21 22 28 39 42 43 42 37 31 30 27 22 18 13 9 5 4 7 10 13 17 19 26 25 27 30
49 36 39 47 59 45 37 40 39 27 31 25 23 22 11 29 20 18 23 35 37 48 43 43 41 36 33 30 28 26 19 14 12 9 8 11 5 12 14 15 26 25 23 26
65 21 33 53 52 52 47 47 36 21 35 24 24 13 18 14 16 15 34 41 42 45 43 41 40 38 36 32 32 27 22 17 15 12 11 14 8 9 13 22 24 33 31 25
50 40 27 39 42 52 49 43 41 31 17 30 24 22 24 22 16 22 16 47 49 45 43 41 42 40 38 35 35 28 25 21 19 17 14 16 12 11 14 17 22 24 27 38
45 39 47 31 37 42 50 50 46 40 25 28 31 26 28 28 22 19 22 43 50 46 46 43 42 42 41 38 37 32 27 25 22 22 17 18 18 12 24 16 23 23 22 37
44 54 45 51 47 53 55 55 51 48 42 37 35 35 22 28 21 24 33 33 41 48 50 46 45 44 44 43 39 35 29 30 26 26 24 21 24 19 21 18 20 20 20 24
41 45 49 49 57 53 52 57 53 53 50 44 42 36 28 22 43 37 28 40 37 44 50 51 48 44 46 48 43 40 34 35 30 29 26 24 26 24 25 24 22 22 25 22
29 35 41 47 46 51 49 54 51 43 42 45 41 33 25 17 17 17 34 40 38 40 43 58 56 50 49 51 46 46 40 38 34 32 30 28 30 29 29 28 27 27 23 24
31 36 34 37 40 54 33 38 44 41 41 39 36 33 34 28 25 34 36 33 42 38 43 57 58 54 53 51 50 46 43 42 37 35 33 31 32 33 30 30 31 33 32 25
31 30 22 32 38 29 47 49 44 35 44 40 38 34 29 41 43 34 43 37 37 42 44 53 61 60 57 55 53 51 48 46 41 39 38 34 35 37 36 35 35 34 37 33
35 25 24 27 39 49 34 43 43 31 33 32 35 30 26 37 22 18 39 35 34 47 44 53 59 63 61 59 59 56 53 51 48 43 40 36 35 40 41 41 40 34 34 32
27 26 32 25 25 31 44 46 46 38 17 26 40 40 37 25 23 37 29 44 35 51 46 51 64 73 71 66 63 62 57 55 50 44 41 39 37 41 41 43 41 40 37 30
25 21 25 29 21 26 30 43 46 17 24 20 51 47 44 38 30 33 21 41 44 45 45 44 61 72 73 72 70 67 62 55 49 46 44 43 43 39 42 47 44 40 40 34
17 22 19 24 24 16 25 29 31 30 22 32 40 49 46 45 45 41 32 25 33 44 42 45 56 66 71 74 74 72 66 58 52 48 48 50 48 42 44 50 50 45 45 37
15 31 17 22 20 24 35 47 35 45 30 18 28 36 41 45 46 48 44 37 34 31 38 45 51 62 71 75 72 71 64 61 55 53 52 54 53 45 47 42 51 50 49 47
9 27 16 28 26 22 19 12 16 18 27 30 16 24 25 30 37 45 42 40 37 37 42 44 51 61 66 72 70 69 67 64 61 60 56 58 58 50 51 44 45 50 47 53
20 2 5 15 34 31 30 15 23 48 45 32 23 11 12 33 31 36 32 40 37 40 51 51 47 54 59 62 67 70 71 67 67 65 64 63 59 55 55 52 45 39 43 38
Wind_Direction_850mb
227 221 224 224 222 235 243 249 241 244 229 272 223 237 249 288 287 288 276 264 221 214 189 192 198 200 210 214 241 255 269 295 337 331 329 359 320 354 343 325 313 278 241 226
219 224 228 234 230 231 242 249 262 272 280 260 247 259 288 282 268 267 274 279 227 177 165 186 191 195 207 221 229 237 268 289 330 349 2 356 345 343 2 13 2 24 201 188
216 220 221 233 224 229 232 241 250 261 276 270 259 263 254 272 258 231 242 250 222 170 177 180 184 193 202 209 223 209 241 303 339 346 354 343 343 328 356 9 28 90 131 170
225 225 227 224 232 220 233 233 241 259 266 266 290 294 295 299 280 239 267 225 199 166 175 180 182 191 196 206 206 205 223 189 334 342 350 351 355 343 352 11 17 50 147 177
225 221 225 226 220 226 229 235 231 234 250 258 265 269 279 279 281 216 213 250 146 155 175 176 180 187 191 197 194 193 218 209 355 344 356 357 9 354 273 349 29 74 73 137
229 224 224 231 222 221 229 235 243 242 255 248 244 253 268 269 339 108 134 130 150 157 168 170 178 180 185 190 191 196 207 217 200 340 349 352 345 358 123 53 61 65 63 97
223 229 228 231 226 214 224 226 221 227 237 253 255 251 254 260 299 111 58 9 136 154 159 165 172 176 181 184 189 195 207 212 133 13 360 354 5 43 96 73 56 56 63 100
219 221 220 215 229 217 207 209 231 222 225 245 317 242 266 254 143 119 154 77 121 152 158 168 174 177 178 183 189 189 197 214 155 53 26 7 48 85 81 55 53 66 59 101
206 229 209 225 212 223 202 206 221 248 255 262 221 237 264 157 160 196 162 135 143 159 160 170 175 177 180 183 189 189 199 200 181 95 59 45 61 80 72 78 65 70 82 100
233 220 229 203 215 217 221 202 209 220 239 259 276 259 255 149 190 168 136 142 151 155 164 172 174 177 180 184 187 187 194 196 188 166 97 75 17 52 65 58 72 76 93 101
226 244 213 213 208 199 199 226 201 219 227 230 248 269 190 150 192 134 150 142 161 160 172 173 175 177 182 182 185 187 190 188 188 176 168 114 75 73 60 70 91 76 98 106
212 225 242 215 200 203 201 214 205 208 220 239 252 246 98 107 140 147 127 148 170 170 175 175 176 177 183 183 186 187 191 190 191 181 165 142 135 96 86 92 99 86 89 102
198 227 237 239 208 192 207 211 220 207 217 220 241 242 160 169 174 174 185 154 165 174 177 176 176 179 186 184 185 186 189 191 187 180 178 156 150 135 113 116 100 96 89 94
187 218 221 228 207 178 190 214 214 213 211 224 230 244 157 159 176 173 196 148 160 176 179 180 180 183 188 187 188 187 188 188 187 181 184 171 159 162 123 100 108 107 103 96
189 208 223 230 233 194 194 204 215 216 218 217 224 244 237 174 177 199 194 164 165 172 182 184 187 186 188 188 190 190 188 187 188 183 186 182 167 155 133 117 115 114 108 103
191 207 214 224 229 244 200 199 209 225 216 215 233 236 225 235 189 185 198 179 179 177 188 187 190 190 190 189 191 191 189 188 187 185 191 186 172 162 159 148 142 130 125 119
224 206 201 224 218 234 217 200 200 218 227 210 218 224 239 224 184 211 188 187 179 180 189 186 191 193 192 191 192 191 189 190 186 187 191 185 179 176 171 161 152 148 144 133
273 210 199 209 224 224 230 202 204 213 227 226 228 217 215 233 231 194 221 195 174 181 183 188 191 192 191 191 192 190 189 191 188 187 189 188 183 183 176 169 166 165 160 157
256 225 195 205 221 227 216 229 204 199 211 215 220 225 218 224 224 230 225 203 194 178 184 192 192 189 186 190 192 191 190 190 191 190 190 189 187 189 182 178 185 182 168 167
241 237 188 207 213 219 218 212 226 228 221 204 205 211 207 229 222 231 211 204 210 176 184 184 188 185 189 190 193 191 192 192 194 194 192 193 192 193 191 186 192 187 174 171
218 193 191 221 199 219 216 230 199 213 227 195 206 199 201 214 225 229 231 191 193 178 183 182 183 185 192 191 192 192 194 196 196 195 194 194 195 199 198 194 204 192 178 178
201 202 195 208 218 223 219 210 218 174 208 242 200 192 200 216 224 233 231 176 196 182 176 184 179 184 192 193 193 195 198 198 196 196 195 194 196 196 198 198 204 201 183 192
296 202 211 204 214 262 270 324 156 137 179 216 200 189 198 209 215 221 218 190 182 185 178 189 178 182 188 194 199 197 199 197 197 197 197 195 201 196 201 204 205 205 194 192
279 278 337 302 211 218 244 276 179 180 187 163 166 188 196 203 205 213 210 196 184 188 191 184 177 180 187 197 200 202 196 197 198 199 198 195 203 199 207 214 210 205 202 188
289 342 326 313 281 235 209 296 186 203 181 168 160 193 188 200 196 196 205 190 183 200 184 186 187 185 190 194 197 197 195 198 200 200 199 195 205 207 205 217 208 203 212 200
257 235 266 256 12 341 282 219 304 202 209 143 164 200 243 191 203 193 194 176 186 193 183 185 191 191 189 195 197 199 196 198 199 201 198 195 194 207 203 214 205 213 208 216